This demonstration page uses our WeatherBlox Daily Observations layout. Learn more.

40.92945, -100.16068

Hourly Observations for January 21, 2019

Temp ( °F °C ) Dew Point ( °F °C ) Humidity (%) Winds ( mph kmh ) Pressure ( in mb ) Visibility ( mi km ) Precip ( " mm )
12:15 am 00:15 Cloudy 18 -8 15 -9.2 91 91 ESE 10 17 30.24 1024 7 11.265408 0 0
12:35 am 00:35 Cloudy with Mist and Fog 18 -8 16 -9.1 92 92 E 8 13 30.24 1024 5 8.04672 0 0
12:55 am 00:55 Cloudy with Mist and Fog 18 -8 15 -9.3 90 90 E 9 15 30.24 1024 1.5 2.414016 0 0
1:15 am 01:15 Cloudy with Mist and Fog 17 -8.1 15 -9.5 90 90 ESE 10 17 30.24 1024 0.75 1.207008 0 0
1:35 am 01:35 Cloudy with Freezing Fog 17 -8.2 15 -9.6 90 90 ESE 13 20 30.24 1024 0.5 0.804672 0 0
1:55 am 01:55 Cloudy with Freezing Fog 17 -8.3 15 -9.7 90 90 ESE 10 17 30.21 1023 0.5 0.804672 0 0
2:15 am 02:15 Cloudy with Freezing Fog 17 -8.5 14 -10 89 89 ESE 12 19 30.21 1023 0.5 0.804672 0 0
2:35 am 02:35 Cloudy with Freezing Fog 17 -8.5 14 -10 89 89 SE 10 17 30.18 1022 0.5 0.804672 0 0
2:55 am 02:55 Cloudy with Freezing Fog 17 -8.5 14 -10 89 89 SE 12 19 30.18 1022 0.5 0.804672 0 0
3:15 am 03:15 Cloudy with Freezing Fog 17 -8.5 14 -10 89 89 ESE 8 13 30.18 1022 0.5 0.804672 0 0
3:35 am 03:35 Cloudy with Freezing Fog 17 -8.5 14 -10 89 89 SE 8 13 30.18 1022 0.5 0.804672 0 0
3:55 am 03:55 Cloudy with Mist and Fog 17 -8.5 14 -10 89 89 ESE 9 15 30.12 1020 0.75 1.207008 0 0
4:15 am 04:15 Cloudy with Mist and Fog 17 -8.5 14 -10 89 89 ESE 10 17 30.09 1019 0.75 1.207008 0 0
4:35 am 04:35 Cloudy with Mist and Fog 17 -8.4 14 -9.9 89 89 ESE 9 15 30.09 1019 1.75 2.816352 0 0
4:55 am 04:55 Cloudy with Mist and Fog 17 -8.5 14 -10 89 89 SE 10 17 30.09 1019 3 4.828032 0 0
5:15 am 05:15 Cloudy with Mist and Fog 17 -8.2 15 -9.7 89 89 SE 10 17 30.09 1019 5 8.04672 0 0
5:35 am 05:35 Cloudy 18 -8 15 -9.5 89 89 SE 12 19 30.06 1018 7 11.265408 0 0
5:55 am 05:55 Cloudy 18 -8 15 -9.5 89 89 SE 9 15 30.06 1018 7 11.265408 0 0
6:15 am 06:15 Cloudy 18 -8 15 -9.5 89 89 SE 8 13 30.06 1018 7 11.265408 0 0
6:35 am 06:35 Cloudy with Mist and Fog 18 -7.7 15 -9.2 89 89 SSE 10 17 30.06 1018 5 8.04672 0 0
6:55 am 06:55 Cloudy with Mist and Fog 18 -7.7 15 -9.2 89 89 SE 9 15 30.03 1017 5 8.04672 0 0
7:15 am 07:15 Cloudy with Mist and Fog 19 -7.5 16 -9 89 89 SE 10 17 30.03 1017 3 4.828032 0 0
7:35 am 07:35 Cloudy with Mist and Fog 19 -7.5 16 -8.8 91 91 SE 10 17 30 1016 5 8.04672 0 0
7:55 am 07:55 Cloudy with Mist and Fog 19 -7.5 16 -8.8 91 91 SE 9 15 30 1016 5 8.04672 0 0
8:15 am 08:15 Cloudy with Mist and Fog 19 -7.3 16 -8.7 90 90 SE 10 17 30 1016 4 6.437376 0 0
8:35 am 08:35 Cloudy with Mist and Fog 20 -6.4 18 -7.6 91 91 SE 8 13 29.97 1015 5 8.04672 0 0
8:55 am 08:55 Cloudy with Mist and Fog 19 -7 17 -8.5 89 89 SE 8 13 30 1016 3 4.828032 0 0
9:15 am 09:15 Cloudy with Mist and Fog 19 -7 17 -8.5 89 89 SE 9 15 30 1016 2.5 4.02336 0 0
9:35 am 09:35 Cloudy with Mist and Fog 19 -7 17 -8.5 89 89 ESE 8 13 30 1016 5 8.04672 0 0
9:55 am 09:55 Cloudy with Mist and Fog 20 -6.9 17 -8.2 91 91 SE 7 11 30 1016 3 4.828032 0 0
10:15 am 10:15 Cloudy 20 -6.7 18 -8 91 91 SE 7 11 29.97 1015 7 11.265408 0 0
10:35 am 10:35 Cloudy 20 -6.7 18 -8 91 91 SE 7 11 29.94 1014 7 11.265408 0 0
10:55 am 10:55 Cloudy 20 -6.5 18 -7.9 90 90 SE 7 11 29.94 1014 7 11.265408 0 0
11:15 am 11:15 Cloudy 20 -6.5 18 -7.7 91 91 ESE 9 15 29.91 1013 7 11.265408 0 0
11:35 am 11:35 Cloudy 21 -6.2 19 -7.5 91 91 SE 8 13 29.91 1013 7 11.265408 0 0
11:55 am 11:55 Cloudy 21 -6.2 19 -7.5 91 91 SE 9 15 29.88 1012 7 11.265408 0 0
12:15 pm 12:15 Cloudy with Mist and Fog 21 -6 19 -7.1 92 92 SE 8 13 29.85 1011 4 6.437376 0 0
12:35 pm 12:35 Cloudy with Mist and Fog 22 -5.6 20 -6.9 91 91 SE 7 11 29.85 1011 1.5 2.414016 0 0
12:55 pm 12:55 Cloudy with Mist and Fog 22 -5.5 20 -6.6 92 92 SE 7 11 29.85 1011 4 6.437376 0 0
1:15 pm 13:15 Cloudy with Light Snow 22 -5.3 20 -6.4 92 92 SSE 7 11 29.85 1011 1.5 2.414016 0 0
1:35 pm 13:35 Cloudy with Mist and Fog 23 -5.2 21 -6.3 92 92 SSE 7 11 29.85 1011 4 6.437376 0 0
1:55 pm 13:55 Cloudy with Mist and Fog 23 -5 21 -6.1 92 92 SE 7 11 29.8 1009 1.5 2.414016 0 0
2:15 pm 14:15 Cloudy with Mist and Fog 23 -5 21 -6 93 93 SE 6 9 29.83 1010 2.5 4.02336 0 0
2:35 pm 14:35 Cloudy with Light Snow 24 -4.7 22 -5.7 93 93 SE 6 9 29.8 1009 1.25 2.01168 0 0
2:55 pm 14:55 Cloudy with Mist and Fog 24 -4.7 22 -5.7 93 93 SE 7 11 29.77 1008 1.5 2.414016 0 0
3:15 pm 15:15 Cloudy with Mist and Fog 24 -4.6 22 -5.6 93 93 SE 6 9 29.77 1008 1.25 2.01168 0 0
3:35 pm 15:35 Cloudy with Mist and Fog 24 -4.6 22 -5.6 93 93 SE 8 13 29.77 1008 0.75 1.207008 0 0
3:55 pm 15:55 Cloudy with Light Snow 24 -4.2 23 -5.2 93 93 SE 7 11 29.74 1007 0.5 0.804672 0 0
4:15 pm 16:15 Cloudy with Light Snow 25 -4 23 -5 93 93 SE 6 9 29.74 1007 0.75 1.207008 0 0
4:35 pm 16:35 Cloudy with Mist and Fog 25 -4 23 -4.9 94 94 ESE 6 9 29.77 1008 1.25 2.01168 0 0
4:55 pm 16:55 Cloudy with Mist and Fog 25 -4 23 -5 93 93 ESE 5 7 29.77 1008 1.25 2.01168 0 0
5:15 pm 17:15 Cloudy with Mist and Fog 26 -3.6 24 -4.6 93 93 Calm 29.77 1008 1.25 2.01168 0 0
5:35 pm 17:35 Cloudy with Mist and Fog 30 -1.1 29 -1.9 94 94 E 3 6 29.74 1007 1.25 2.01168 0 0
5:55 pm 17:55 Cloudy with Mist and Fog 26 -3.5 25 -4.1 96 96 E 3 6 29.77 1008 2 3.218688 0 0
6:15 pm 18:15 Cloudy with Mist and Fog 26 -3.3 25 -4.1 94 94 E 5 7 29.77 1008 2.5 4.02336 0 0
6:35 pm 18:35 Cloudy with Mist and Fog 26 -3.2 25 -4.1 94 94 E 3 6 29.8 1009 2.5 4.02336 0 0
6:55 pm 18:55 Cloudy with Mist and Fog 26 -3.2 25 -4 94 94 E 3 6 29.8 1009 2.5 4.02336 0 0
7:15 pm 19:15 Cloudy with Mist and Fog 27 -3 25 -3.9 94 94 E 5 7 29.8 1009 2.5 4.02336 0 0
7:35 pm 19:35 Cloudy with Mist and Fog 26 -3.1 25 -4 94 94 E 5 7 29.8 1009 2.5 4.02336 0 0
7:55 pm 19:55 Cloudy with Mist and Fog 26 -3.2 25 -4.1 94 94 ENE 3 6 29.8 1009 3 4.828032 0 0
8:15 pm 20:15 Cloudy with Mist and Fog 26 -3.2 25 -4.1 94 94 NNE 3 6 29.83 1010 5 8.04672 0 0
8:35 pm 20:35 Cloudy with Mist and Fog 26 -3.2 25 -4.1 94 94 NNE 6 9 29.8 1009 5 8.04672 0 0
8:55 pm 20:55 Cloudy with Mist and Fog 26 -3.3 24 -4.2 94 94 NE 6 9 29.83 1010 5 8.04672 0 0
9:15 pm 21:15 Cloudy with Mist and Fog 25 -3.8 23 -4.8 93 93 NE 6 9 29.8 1009 5 8.04672 0 0
9:35 pm 21:35 Cloudy with Mist and Fog 25 -4 23 -5 93 93 NE 6 9 29.83 1010 4 6.437376 0 0
9:55 pm 21:55 Cloudy with Mist and Fog 25 -4 23 -5 93 93 NE 6 9 29.83 1010 4 6.437376 0 0
10:15 pm 22:15 Cloudy with Mist and Fog 25 -4 23 -5 93 93 NNE 6 9 29.83 1010 5 8.04672 0 0
10:35 pm 22:35 Cloudy with Mist and Fog 25 -4 23 -5 93 93 NNE 5 7 29.83 1010 5 8.04672 0 0
10:55 pm 22:55 Cloudy with Mist and Fog 25 -4 23 -5 93 93 NE 6 9 29.83 1010 5 8.04672 0 0
11:15 pm 23:15 Cloudy with Mist and Fog 25 -4 23 -5 93 93 NNE 5 7 29.83 1010 4 6.437376 0 0
11:35 pm 23:35 Cloudy with Mist and Fog 25 -4 23 -5 93 93 NNE 6 9 29.83 1010 5 8.04672 0 0
11:55 pm 23:55 Cloudy with Mist and Fog 25 -4.1 23 -5.1 93 93 NNE 6 9 29.83 1010 4 6.437376 0 0

Powered by AerisWeather